Location: Easter Hill Village
(37.9235°N, 122.3444°W)
Time: 00:05:57
(UTC+00:00)

ISS - Pass Details

Date: 16 September 2019
Orbit: 411 x 421 km, 51.6° (Epoch: 16 October)

Event Time Altitude Azimuth Distance (km) Brightness Sun altitude
Exits shadow 12:06:25 29° 149° (SSE) 795 -2.3 -21.1°
Drops below altitude 10° 12:08:13 10° 141° (SE) 1,484 -0.8 -20.7°
Sets 12:10:18 0° 138° (SE) 2,345 0.3 -20.4°
